Flag for Germany Past Weather in Neunkirchen (Saar), Saarland, Germany — Yesterday and Last 2 Weeks

Now
86 °F

Passing clouds.


Feels Like: 85 °F
Forecast: 61 / 87 °F
Wind: 8 mph from East

Location: Saarbruecken / Ensheim

Current Time: Aug 24, 2016 at 6:26:33 PM

Latest Report: Aug 24, 2016 at 5:50 PM


Visibility: N/A

Pressure: 30.15 "Hg

Humidity: 38%

Dew Point: 57 °F

Location of Neunkirchen (Saar)Location

Past Weather in Neunkirchen (Saar) — Graph

°F

Neunkirchen (Saar) Temperature Yesterday

Maximum temperature yesterday: 82 °F (at 4:20 PM)
Minimum temperature yesterday: 54 °F (at 6:20 AM)
Average temperature yesterday: 68 °F

High & Low Weather Summary for the Past Weeks

 TemperatureHumidityPressure
High86 °F (Aug 24, 2:50 PM)100% (Aug 11, 12:20 AM)30.39 "Hg (Aug 11, 12:20 AM)
Low39 °F (Aug 11, 6:50 AM)31% (Aug 24, 2:50 PM)29.83 "Hg (Aug 18, 4:20 AM)
Average64 °F75%30.13 "Hg
* Reported Aug 9 5:20 PM — Aug 24 5:20 PM, Neunkirchen (Saar), Weather by CustomWeather, © 2016

Note: Actual official high and low records may vary slightly from our data, if they occured in-between our weather recording intervals... More about our weather records

Advertising

Neunkirchen (Saar) Weather History for the Previous 24 Hours

Scroll right to see more
 ConditionsComfort  
Time TempWeatherWind HumidityBarometerVisibility
5:20 PM
Wed, Aug 24
86 °FSunny.9 mph35%30.15 "Hg10 mi
4:50 PM86 °FPassing clouds.9 mph35%30.15 "HgN/A
4:20 PM86 °FPassing clouds.10 mph38%30.15 "HgN/A
3:50 PM86 °FPassing clouds.9 mph35%30.15 "HgN/A
3:20 PM86 °FSunny.10 mph33%30.15 "Hg10 mi
2:50 PM86 °FPassing clouds.8 mph31%30.18 "HgN/A
2:20 PM84 °FPassing clouds.8 mph37%30.18 "HgN/A
1:50 PM84 °FPassing clouds.8 mph37%30.18 "HgN/A
1:20 PM82 °FPassing clouds.8 mph40%30.18 "HgN/A
12:50 PM81 °FPassing clouds.10 mph45%30.21 "HgN/A
12:20 PM79 °FSunny.10 mph48%30.21 "Hg10 mi
11:50 AM77 °FSunny.10 mph54%30.21 "Hg10 mi
11:20 AM77 °FSunny.10 mph54%30.21 "Hg10 mi
10:50 AM75 °FPassing clouds.10 mph61%30.21 "HgN/A
10:20 AM73 °FPassing clouds.9 mph65%30.21 "HgN/A
9:50 AM72 °FSunny.9 mph69%30.21 "Hg10 mi
9:20 AM70 °FPassing clouds.8 mph69%30.21 "HgN/A
8:50 AM68 °FPassing clouds.6 mph73%30.24 "HgN/A
8:20 AM64 °FSunny.6 mph78%30.24 "Hg10 mi
7:50 AM63 °FPassing clouds.7 mph83%30.21 "HgN/A
7:20 AM59 °FPassing clouds.3 mph88%30.21 "HgN/A
6:50 AM59 °FClear.6 mph88%30.21 "Hg10 mi
6:20 AM59 °FClear.5 mph82%30.21 "Hg10 mi
5:50 AM61 °FClear.7 mph83%30.21 "Hg10 mi
5:20 AM61 °FPassing clouds.7 mph83%30.21 "HgN/A
4:50 AM61 °FPassing clouds.7 mph83%30.21 "HgN/A
4:20 AM63 °FClear.9 mph77%30.21 "Hg10 mi
3:50 AM63 °FClear.6 mph77%30.21 "Hg10 mi
3:20 AM63 °FClear.8 mph77%30.24 "Hg10 mi
2:50 AM63 °FClear.9 mph83%30.24 "Hg10 mi
2:20 AM63 °FClear.8 mph83%30.24 "Hg10 mi
1:50 AM64 °FPassing clouds.8 mph78%30.24 "HgN/A
1:20 AM64 °FPassing clouds.6 mph78%30.24 "HgN/A
12:50 AM66 °FClear.7 mph73%30.24 "Hg10 mi
12:20 AM66 °FClear.7 mph78%30.24 "Hg10 mi
11:50 PM
Tue, Aug 23
66 °FClear.7 mph78%30.24 "Hg10 mi
11:20 PM68 °FClear.9 mph73%30.24 "Hg10 mi
10:50 PM68 °FClear.8 mph78%30.27 "Hg10 mi
10:20 PM68 °FClear.7 mph78%30.27 "Hg10 mi
9:50 PM68 °FClear.6 mph73%30.27 "Hg10 mi
9:20 PM70 °FSunny.7 mph69%30.27 "Hg10 mi
8:50 PM73 °FSunny.7 mph65%30.27 "Hg10 mi
8:20 PM73 °FSunny.6 mph65%30.27 "Hg10 mi
7:50 PM79 °FSunny.6 mph51%30.24 "Hg10 mi
7:20 PM81 °FSunny.6 mph48%30.24 "Hg10 mi
6:50 PM81 °FSunny.7 mph45%30.27 "Hg10 mi
6:20 PM82 °FPassing clouds.6 mph42%30.27 "HgN/A
Weather by CustomWeather, © 2016

See weather overviewHow to use our weather pages